User: anonymous   Login
Location: Unspecified
(0.0000°N, 0.0000°E)
Time: 06:06:54
(UTC+00:00)
Language:

Oscar 10/S400 - Orbit

View from above orbital plane
View from above orbital plane
View from above satellite
View from above satellite

Ground track
Ground track

The orbit data is extracted from the following two-line orbital elements,

1 14129U 83058B   21330.73542570 -.00000089  00000-0  00000-0 0  9991
2 14129  26.3516 128.8266 5975915  27.6098 354.2376  2.05869988261237
Epoch (UTC): 26 November 2021 17:39:00
Eccentricity: 0.5975915
inclination: 26.3516°
perigee height: 4125 km
apogee height: 35322 km
right ascension of ascending node: 128.8266°
argument of perigee: 27.6098°
revolutions per day: 2.05869988
mean anomaly at epoch: 354.2376°
orbit number at epoch: 26123

The dashed part of the orbit path shows where the satellite is in the earth's shadow,  

DLR